Flag for United Kingdom Weather past 2 weeks in Plymouth, England, United Kingdom

Now
36 °F

Passing clouds.


Feels Like: 32 °F
Forecast: 30 / 41 °F
Wind: 5 mph from North

Location: Exeter Airport

Current Time: Dec 28, 2014 at 3:11:09 AM

Latest Report: Dec 28, 2014 at 2:20 AM


Visibility: N/A

Pressure: 30.09 "Hg

Humidity: 81%

Dew point: 30 °F

Location of PlymouthLocation

Historic Weather in Plymouth — Graph

°F

Plymouth temperature yesterday

Maximum temperature yesterday: 46 °F (at 12:20 PM)
Minimum temperature yesterday: 36 °F (at 7:50 PM)
Average temperature yesterday: 42 °F

Past Weeks' High & Low Weather Summary

 TemperatureHumidityPressure
High57 °F (Dec 18, 11:20 AM)100% (Dec 13, 5:50 AM)30.54 "Hg (Dec 13, 5:50 AM)
Low28 °F (Dec 13, 5:50 AM)62% (Dec 24, 2:20 PM)29.65 "Hg (Dec 12, 8:20 PM)
Average47 °F85%30.03 "Hg
* Reported Dec 12 8:20 PM — Dec 27 8:20 PM, Plymouth, Weather by CustomWeather, © 2014

Note: Actual official high and low records may vary slightly from our data, if they occured in-between our weather recording intervals... More about our weather records

Advertising

Plymouth weather history for previous 24 hours

 ConditionsComfort  
Time TempWeatherWind HumidityBarometerVisibility
8:20 PM
Dec 27
37 °FPassing clouds.9 mph81%29.92 "HgN/A
7:50 PM36 °FPassing clouds.12 mph87%29.89 "HgN/A
7:20 PM37 °FPassing clouds.6 mph81%29.89 "HgN/A
6:50 PM37 °FPassing clouds.1 mph81%29.89 "HgN/A
6:20 PM37 °FPassing clouds.5 mph87%29.86 "HgN/A
5:50 PM39 °FPassing clouds.7 mph75%29.86 "HgN/A
5:20 PM41 °FPassing clouds.8 mph76%29.86 "HgN/A
4:50 PM41 °FPassing clouds.10 mph76%29.86 "HgN/A
4:20 PM41 °FPassing clouds.12 mph76%29.83 "HgN/A
3:50 PM43 °FScattered clouds.13 mph71%29.83 "HgN/A
3:20 PM45 °FScattered clouds.15 mph66%29.83 "HgN/A
2:50 PM45 °FScattered clouds.14 mph71%29.83 "HgN/A
2:20 PM45 °FScattered clouds.14 mph71%29.83 "HgN/A
1:50 PM45 °FScattered clouds.13 mph71%29.83 "HgN/A
1:20 PM45 °FScattered clouds.16 mph71%29.86 "HgN/A
12:50 PM46 °FPassing clouds.15 mph66%29.86 "HgN/A
12:20 PM46 °FPassing clouds.16 mph66%29.89 "HgN/A
11:50 AM45 °FPassing clouds.17 mph71%29.89 "HgN/A
11:20 AM45 °FPassing clouds.13 mph76%29.89 "HgN/A
10:50 AM43 °FPassing clouds.13 mph81%29.89 "HgN/A
10:20 AM43 °FPassing clouds.10 mph81%29.92 "HgN/A
9:50 AM41 °FPassing clouds.6 mph81%29.92 "HgN/A
9:20 AM41 °FPassing clouds.8 mph81%29.92 "HgN/A
8:50 AM41 °FPassing clouds.8 mph81%29.92 "HgN/A
8:20 AM39 °FPassing clouds.10 mph87%29.92 "HgN/A
7:50 AM39 °FPassing clouds.9 mph87%29.92 "HgN/A
7:20 AM39 °FPassing clouds.7 mph87%29.92 "HgN/A
6:50 AM41 °FPassing clouds.10 mph81%29.92 "HgN/A
6:20 AM41 °FSprinkles. Passing clouds.18 mph87%29.92 "Hg6 mi
Weather by CustomWeather, © 2014

See weather overviewHow to use our weather pages